ID Time Temp Humidity Light PM2.5 PM10 Voltage Extra Firmware Position Fcnt TTN version Gateways Distance RSSI LSNR Radiosettings
2026-05-09 08:19:59 13.125°C 93.75% 3.35V v4 52.0874 / 5.08136 3509 ttn.v3 1.53km -122 -10.5 867.5MHz, SF9BW125, 4/5CR
2026-05-09 08:04:00 11.9375°C 89.125% 3.36V v4 52.0874 / 5.08136 3508 ttn.v3 1.53km -123 -5.2 868.1MHz, SF9BW125, 4/5CR
2026-05-09 07:48:01 10.625°C 19.1875% 3.36V v4 52.0874 / 5.08136 3507 ttn.v3 1.53km -124 -10.8 867.3MHz, SF9BW125, 4/5CR
2026-05-09 07:32:03 9.3125°C 101.125% 3.36V v4 52.0874 / 5.08136 3506 ttn.v3 2.345km -119 -13 868.5MHz, SF9BW125, 4/5CR
2026-05-09 07:16:05 8.875°C 92.125% 3.36V v4 52.0874 / 5.08136 3505 ttn.v3 2.345km -121 -5.25 867.1MHz, SF9BW125, 4/5CR
1.53km -124 -8.2 867.1MHz, SF9BW125, 4/5CR
2026-05-09 06:44:09 7.625°C 88.9375% 3.36V v4 52.0874 / 5.08136 3503 ttn.v3 1.53km -124 -6.5 867.9MHz, SF9BW125, 4/5CR
2.345km -126 -10 867.9MHz, SF9BW125, 4/5CR
4.968km -110 -12 867.9MHz, SF9BW125, 4/5CR
2026-05-09 06:28:11 7.6875°C 89.5% 3.36V v4 52.0874 / 5.08136 3502 ttn.v3 1.53km -123 -11.5 868.1MHz, SF9BW125, 4/5CR
2.345km -125 -12.5 868.1MHz, SF9BW125, 4/5CR
2026-05-09 06:12:13 7.8125°C 88.875% 3.36V v4 52.0874 / 5.08136 3501 ttn.v3 1.53km -123 -5.8 867.7MHz, SF9BW125, 4/5CR
2.345km -124 -8.25 867.7MHz, SF9BW125, 4/5CR
2026-05-09 05:56:14 7.6875°C 89.9375% 3.36V v4 52.0874 / 5.08136 3500 ttn.v3 2.345km -118 -9.75 868.5MHz, SF9BW125, 4/5CR
2026-05-09 05:40:16 7.375°C 93.5625% 3.36V v4 52.0874 / 5.08136 3499 ttn.v3 1.53km -122 -10.2 867.5MHz, SF9BW125, 4/5CR
2026-05-09 05:08:20 7.9375°C 94.3125% 3.36V v4 52.0874 / 5.08136 3497 ttn.v3 1.53km -124 -11.2 867.3MHz, SF9BW125, 4/5CR
2026-05-09 04:52:22 8.0625°C 97.4375% 3.36V v4 52.0874 / 5.08136 3496 ttn.v3 1.53km -123 -8.5 868.1MHz, SF9BW125, 4/5CR
2.345km -123 -9 868.1MHz, SF9BW125, 4/5CR
2026-05-09 04:36:24 8.3125°C 99.5625% 3.36V v4 52.0874 / 5.08136 3495 ttn.v3 2.345km -121 -7 867.1MHz, SF9BW125, 4/5CR
1.53km -124 -11.2 867.1MHz, SF9BW125, 4/5CR
2026-05-09 04:20:26 8.5625°C 105.5% 3.36V v4 52.0874 / 5.08136 3494 ttn.v3 2.345km -118 -9.5 868.5MHz, SF9BW125, 4/5CR
2026-05-09 04:04:28 8.9375°C 112% 3.36V v4 52.0874 / 5.08136 3493 ttn.v3 1.53km -124 -6 867.9MHz, SF9BW125, 4/5CR
2.345km -125 -8 867.9MHz, SF9BW125, 4/5CR
2026-05-09 03:32:31 9.3125°C -4.4375% 3.36V v4 52.0874 / 5.08136 3491 ttn.v3 2.345km -119 -2.75 867.7MHz, SF9BW125, 4/5CR
1.53km -124 -7.2 867.7MHz, SF9BW125, 4/5CR
2026-05-09 03:16:33 9.125°C 112.25% 3.36V v4 52.0874 / 5.08136 3490 ttn.v3 1.53km -123 -7.2 868.1MHz, SF9BW125, 4/5CR
2026-05-09 03:00:35 8.6875°C 102.875% 3.36V v4 52.0874 / 5.08136 3489 ttn.v3 1.53km -121 -9 867.5MHz, SF9BW125, 4/5CR
2026-05-09 02:12:40 9.25°C 8.5% 3.36V v4 52.0874 / 5.08136 3486 ttn.v3 1.53km -124 -7.8 868.1MHz, SF9BW125, 4/5CR
2026-05-09 01:56:42 9.875°C 34.5% 3.36V v4 52.0874 / 5.08136 3485 ttn.v3 1.53km -124 -8.2 867.9MHz, SF9BW125, 4/5CR
4.968km -111 -11.75 867.9MHz, SF9BW125, 4/5CR
- -127 -12 867.9MHz, SF9BW125, 4/5CR
2026-05-09 01:24:44 11°C 89.5625% 3.36V v4 52.0874 / 5.08136 3483 ttn.v3 2.345km -119 -2.5 867.7MHz, SF9BW125, 4/5CR
1.53km -124 -9.5 867.7MHz, SF9BW125, 4/5CR
2026-05-09 01:08:45 11.375°C 91.125% 3.36V v4 52.0874 / 5.08136 3482 ttn.v3 1.53km -118 -12.2 868.3MHz, SF9BW125, 4/5CR
2026-05-09 00:52:47 11.3125°C 90.625% 3.35V v4 52.0874 / 5.08136 3481 ttn.v3 1.53km -122 -9.5 867.5MHz, SF9BW125, 4/5CR
2026-05-09 00:36:48 11.375°C 90.625% 3.36V v4 52.0874 / 5.08136 3480 ttn.v3 1.53km -124 -6.5 868.1MHz, SF9BW125, 4/5CR
2.345km -123 -11.75 868.1MHz, SF9BW125, 4/5CR
2026-05-09 00:20:49 11.25°C 90.25% 3.36V v4 52.0874 / 5.08136 3479 ttn.v3 1.53km -123 -7.2 867.3MHz, SF9BW125, 4/5CR
2026-05-09 00:04:51 10°C 23.25% 3.36V v4 52.0874 / 5.08136 3478 ttn.v3 2.345km -120 -12.25 868.5MHz, SF9BW125, 4/5CR
2026-05-08 23:48:52 9.75°C -1.5% 3.36V v4 52.0874 / 5.08136 3477 ttn.v3 2.345km -120 -5 867.1MHz, SF9BW125, 4/5CR
1.53km -124 -11.5 867.1MHz, SF9BW125, 4/5CR
2026-05-08 23:16:55 10.375°C 88.9375% 3.36V v4 52.0874 / 5.08136 3475 ttn.v3 1.53km -124 -6.8 867.9MHz, SF9BW125, 4/5CR
2.345km -126 -9.5 867.9MHz, SF9BW125, 4/5CR
2026-05-08 23:00:56 10.625°C 89.125% 3.36V v4 52.0874 / 5.08136 3474 ttn.v3 1.53km -123 -8.2 868.1MHz, SF9BW125, 4/5CR
2.345km -125 -12.75 868.1MHz, SF9BW125, 4/5CR
2026-05-08 22:44:58 10.9375°C 12.3125% 3.36V v4 52.0874 / 5.08136 3473 ttn.v3 1.53km -124 -6.5 867.7MHz, SF9BW125, 4/5CR
2026-05-08 22:13:00 11.4375°C 71.8125% 3.36V v4 52.0874 / 5.08136 3471 ttn.v3 1.53km -123 -10.2 867.5MHz, SF9BW125, 4/5CR
2026-05-08 21:41:02 12.25°C -1.1875% 3.35V v4 52.0874 / 5.08136 3469 ttn.v3 1.53km -124 -10.5 867.3MHz, SF9BW125, 4/5CR
2026-05-08 21:25:03 12.9375°C 108.688% 3.35V v4 52.0874 / 5.08136 3468 ttn.v3 2.345km -127 -10.5 868.1MHz, SF9BW125, 4/5CR
2026-05-08 21:09:03 13.75°C 93.25% 3.35V v4 52.0874 / 5.08136 3467 ttn.v3 2.345km -122 -5.25 867.1MHz, SF9BW125, 4/5CR
1.53km -124 -10 867.1MHz, SF9BW125, 4/5CR
2026-05-08 20:53:04 14.3125°C 82.3125% 3.35V v4 52.0874 / 5.08136 3466 ttn.v3 2.345km -119 -12.25 868.5MHz, SF9BW125, 4/5CR
2026-05-08 20:37:04 14.8125°C 78.8125% 3.35V v4 52.0874 / 5.08136 3465 ttn.v3 1.53km -123 -5.8 867.9MHz, SF9BW125, 4/5CR
2.345km -126 -11 867.9MHz, SF9BW125, 4/5CR
2026-05-08 20:05:04 15.6875°C 74.5625% 3.35V v4 52.0874 / 5.08136 3463 ttn.v3 1.53km -123 -9.2 867.7MHz, SF9BW125, 4/5CR
2026-05-08 19:49:04 16.1875°C 73.5625% 3.35V v4 52.0874 / 5.08136 3462 ttn.v3 2.345km -123 -8.5 868.1MHz, SF9BW125, 4/5CR
2026-05-08 18:29:03 16.8125°C 60.9375% 3.35V v4 52.0874 / 5.08136 3457 ttn.v3 2.345km -122 -5.75 867.1MHz, SF9BW125, 4/5CR
1.53km -124 -11.8 867.1MHz, SF9BW125, 4/5CR
2026-05-08 17:57:03 16.6875°C 62.4375% 3.35V v4 52.0874 / 5.08136 3455 ttn.v3 1.53km -124 -6 867.9MHz, SF9BW125, 4/5CR
2.345km -125 -8.75 867.9MHz, SF9BW125, 4/5CR
2026-05-08 17:41:03 16.625°C 61.3125% 3.35V v4 52.0874 / 5.08136 3454 ttn.v3 2.345km -120 -9.5 868.5MHz, SF9BW125, 4/5CR
2026-05-08 17:25:02 16.6875°C 63.3125% 3.35V v4 52.0874 / 5.08136 3453 ttn.v3 1.53km -124 -10.2 867.7MHz, SF9BW125, 4/5CR
2026-05-08 16:53:02 16.8125°C 63.1875% 3.35V v4 52.0874 / 5.08136 3451 ttn.v3 1.53km -122 -12.2 867.5MHz, SF9BW125, 4/5CR
2026-05-08 16:37:02 17°C 64.5% 3.35V v4 52.0874 / 5.08136 3450 ttn.v3 1.53km -124 -11.8 868.1MHz, SF9BW125, 4/5CR
2026-05-08 16:21:01 17.125°C 67.25% 3.35V v4 52.0874 / 5.08136 3449 ttn.v3 2.345km -124 -10 867.3MHz, SF9BW125, 4/5CR
2026-05-08 16:05:01 17.0625°C 68.125% 3.35V v4 52.0874 / 5.08136 3448 ttn.v3 2.345km -118 -11 868.5MHz, SF9BW125, 4/5CR
2026-05-08 15:49:01 16.9375°C 69.1875% 3.35V v4 52.0874 / 5.08136 3447 ttn.v3 2.345km -123 -6.25 867.1MHz, SF9BW125, 4/5CR
1.53km -124 -7.2 867.1MHz, SF9BW125, 4/5CR
- -123 -10.5 867.1MHz, SF9BW125, 4/5CR
2026-05-08 15:17:07 16.9375°C 71.125% 3.35V v4 52.0874 / 5.08136 3445 ttn.v3 1.53km -124 -7.5 867.9MHz, SF9BW125, 4/5CR
2.345km -125 -8.75 867.9MHz, SF9BW125, 4/5CR
2026-05-08 15:01:00 17.125°C 70.625% 3.35V v4 52.0874 / 5.08136 3444 ttn.v3 2.345km -127 -11.75 867.7MHz, SF9BW125, 4/5CR
2026-05-08 14:29:00 17.125°C 68.1875% 3.35V v4 52.0874 / 5.08136 3442 ttn.v3 2.345km -124 -9.25 868.1MHz, SF9BW125, 4/5CR
1.53km -124 -11.8 868.1MHz, SF9BW125, 4/5CR
2026-05-08 14:13:41 16.8125°C 65.9375% 3.35V v4 52.0874 / 5.08136 3441 ttn.v3 1.53km -117 -16.5 867.5MHz, SF12BW125, 4/5CR
- -104 -21.5 867.5MHz, SF12BW125, 4/5CR
2026-05-08 13:57:02 16.6875°C 70.9375% 3.35V v4 52.0874 / 5.08142 3440 ttn.v3 2.346km -119 -12 868.5MHz, SF9BW125, 4/5CR
2026-05-08 13:09:01 17.625°C 70.3125% 3.35V v4 52.0874 / 5.08142 3437 ttn.v3 2.346km -122 -7 867.1MHz, SF9BW125, 4/5CR
2026-05-08 12:20:59 19.6875°C 68.125% 3.35V v4 52.0874 / 5.08142 3434 ttn.v3 2.346km -117 -8.25 868.5MHz, SF9BW125, 4/5CR
2026-05-08 12:04:58 18.875°C 70.75% 3.35V v4 52.0874 / 5.08142 3433 ttn.v3 1.528km -124 -8.2 867.7MHz, SF9BW125, 4/5CR
2.346km -124 -8.75 867.7MHz, SF9BW125, 4/5CR
2026-05-08 10:28:58 14.8125°C 109.812% 3.35V v4 52.0874 / 5.08142 3427 ttn.v3 2.346km -123 -7 867.1MHz, SF9BW125, 4/5CR
1.528km -124 -8.2 867.1MHz, SF9BW125, 4/5CR
- -125 -12.75 867.1MHz, SF9BW125, 4/5CR
2026-05-08 09:56:59 12.8125°C 92.375% 3.36V v4 52.0874 / 5.08142 3425 ttn.v3 2.346km -123 -7.5 867.9MHz, SF9BW125, 4/5CR
1.528km -124 -9.5 867.9MHz, SF9BW125, 4/5CR
2026-05-08 09:41:00 12.25°C 90.6875% 3.36V v4 52.0874 / 5.08142 3424 ttn.v3 1.528km -123 -5 868.1MHz, SF9BW125, 4/5CR
2026-05-08 09:25:01 11.875°C 89.3125% 3.36V v4 52.0874 / 5.08142 3423 ttn.v3 1.528km -124 -10.5 867.7MHz, SF9BW125, 4/5CR
2.346km -126 -10.75 867.7MHz, SF9BW125, 4/5CR
2026-05-08 08:53:04 10.9375°C 31.5625% 3.36V v4 52.0874 / 5.08142 3421 ttn.v3 1.528km -121 -14.2 867.5MHz, SF9BW125, 4/5CR
2026-05-08 08:05:08 9.9375°C -3.25% 3.36V v4 52.0874 / 5.08142 3418 ttn.v3 1.528km -123 -9.5 868.1MHz, SF9BW125, 4/5CR
2026-05-08 07:49:09 9.75°C 114.25% 3.36V v4 52.0874 / 5.08142 3417 ttn.v3 1.528km -124 -4.2 867.1MHz, SF9BW125, 4/5CR
2.346km -123 -7 867.1MHz, SF9BW125, 4/5CR
2026-05-08 07:17:13 9.5625°C 107.625% 3.36V v4 52.0874 / 5.08142 3415 ttn.v3 2.346km -124 -7.75 867.9MHz, SF9BW125, 4/5CR
1.528km -124 -7.8 867.9MHz, SF9BW125, 4/5CR
- -122 -8.5 867.9MHz, SF9BW125, 4/5CR
2026-05-08 06:45:16 9.4375°C 108.188% 3.36V v4 52.0874 / 5.08142 3413 ttn.v3 2.346km -127 -10.75 867.7MHz, SF9BW125, 4/5CR
- -125 -11 867.7MHz, SF9BW125, 4/5CR
2026-05-08 06:29:17 9.5°C 113.375% 3.36V v4 52.0874 / 5.08142 3412 ttn.v3 1.528km -124 -6.5 868.1MHz, SF9BW125, 4/5CR
2.346km -128 -14.75 868.1MHz, SF9BW125, 4/5CR
2026-05-08 05:09:25 10°C 14.125% 3.36V v4 52.0874 / 5.08142 3407 ttn.v3 1.528km -124 -7.2 867.1MHz, SF9BW125, 4/5CR
2026-05-08 04:53:26 10.0625°C 27.75% 3.36V v4 52.0874 / 5.08142 3406 ttn.v3 1.528km -124 -9.2 868.1MHz, SF9BW125, 4/5CR
2026-05-08 04:37:28 10.125°C 88.8125% 3.36V v4 52.0874 / 5.08142 3405 ttn.v3 1.528km -124 -6.8 867.9MHz, SF9BW125, 4/5CR
- -121 -8.75 867.9MHz, SF9BW125, 4/5CR
4.964km -108 -10.5 867.9MHz, SF9BW125, 4/5CR
2026-05-08 04:05:31 10.3125°C 96.75% 3.36V v4 52.0874 / 5.08142 3403 ttn.v3 1.528km -124 -9.8 867.7MHz, SF9BW125, 4/5CR
2.346km -128 -11.25 867.7MHz, SF9BW125, 4/5CR
- -125 -11.75 867.7MHz, SF9BW125, 4/5CR
2026-05-08 03:33:33 10.625°C 15.6875% 3.36V v4 52.0874 / 5.08142 3401 ttn.v3 2.346km -124 -12.75 867.5MHz, SF9BW125, 4/5CR
1.528km -121 -13.8 867.5MHz, SF9BW125, 4/5CR
2026-05-08 03:01:36 10.875°C 47.5625% 3.36V v4 52.0874 / 5.08142 3399 ttn.v3 1.528km -123 -8.2 867.3MHz, SF9BW125, 4/5CR
2.346km -124 -8.75 867.3MHz, SF9BW125, 4/5CR
2026-05-08 02:45:37 11.0625°C 60.5% 3.36V v4 52.0874 / 5.08142 3398 ttn.v3 2.346km -122 -12.25 868.5MHz, SF9BW125, 4/5CR
2026-05-08 02:29:38 11.25°C 71.5% 3.36V v4 52.0874 / 5.08142 3397 ttn.v3 1.528km -124 -8.5 867.1MHz, SF9BW125, 4/5CR
2026-05-08 01:57:40 11.5°C 92.9375% 3.36V v4 52.0874 / 5.08142 3395 ttn.v3 2.346km -123 -6.5 867.9MHz, SF9BW125, 4/5CR
1.528km -124 -9.2 867.9MHz, SF9BW125, 4/5CR
2026-05-08 01:41:42 11.5625°C 100.312% 3.36V v4 52.0874 / 5.08142 3394 ttn.v3 1.528km -124 -9.2 868.1MHz, SF9BW125, 4/5CR
2.346km -126 -11.5 868.1MHz, SF9BW125, 4/5CR
2026-05-08 01:25:43 11.75°C 105.688% 3.35V v4 52.0874 / 5.08142 3393 ttn.v3 2.346km -124 -8.5 867.7MHz, SF9BW125, 4/5CR
2026-05-08 00:53:45 11.875°C 109.875% 3.36V v4 52.0874 / 5.08142 3391 ttn.v3 1.528km -122 -12.8 867.5MHz, SF9BW125, 4/5CR
2026-05-08 00:21:47 12.125°C 118.812% 3.36V v4 52.0874 / 5.08142 3389 ttn.v3 2.346km -126 -9.5 867.3MHz, SF9BW125, 4/5CR
2026-05-08 00:05:48 12.1875°C -1.25% 3.36V v4 52.0874 / 5.08142 3388 ttn.v3 1.528km -124 -10 868.1MHz, SF9BW125, 4/5CR
2026-05-07 23:49:49 12.375°C -3.8125% 3.35V v4 52.0874 / 5.08142 3387 ttn.v3 2.346km -122 -5 867.1MHz, SF9BW125, 4/5CR
1.528km -124 -5.5 867.1MHz, SF9BW125, 4/5CR
2026-05-07 23:17:50 12.6875°C 108.688% 3.36V v4 52.0874 / 5.08142 3385 ttn.v3 1.528km -124 -7.5 867.9MHz, SF9BW125, 4/5CR
2.346km -126 -9.75 867.9MHz, SF9BW125, 4/5CR
2026-05-07 22:45:52 13.125°C 93.5625% 3.35V v4 52.0874 / 5.08142 3383 ttn.v3 2.346km -125 -10 867.7MHz, SF9BW125, 4/5CR
1.528km -124 -14 867.7MHz, SF9BW125, 4/5CR
2026-05-07 22:29:53 13.3125°C 89.375% 3.35V v4 52.0874 / 5.08142 3382 ttn.v3 2.346km -123 -7.75 868.1MHz, SF9BW125, 4/5CR
2026-05-07 22:13:53 13.5°C 85.5% 3.35V v4 52.0874 / 5.08142 3381 ttn.v3 2.346km -123 -11.25 867.5MHz, SF9BW125, 4/5CR
1.528km -123 -13.8 867.5MHz, SF9BW125, 4/5CR
2026-05-07 21:09:55 14.0625°C 78.875% 3.36V v4 52.0874 / 5.08142 3377 ttn.v3 2.346km -125 -9.75 868.1MHz, SF9BW125, 4/5CR
1.528km -124 -9.8 868.1MHz, SF9BW125, 4/5CR
2026-05-07 20:54:04 14.125°C 77.3125% 3.35V v4 52.0874 / 5.08142 3376 ttn.v3 2.346km -118 -9.75 868.5MHz, SF9BW125, 4/5CR
2026-05-07 20:21:57 14.375°C 77.8125% 3.35V v4 52.0874 / 5.08142 3374 ttn.v3 1.528km -123 -8.5 867.7MHz, SF9BW125, 4/5CR
2026-05-07 20:05:58 14.4375°C 76.6875% 3.35V v4 52.0874 / 5.08142 3373 ttn.v3 1.528km -119 -14 868.1MHz, SF9BW125, 4/5CR
2026-05-07 19:33:58 14.5625°C 76% 3.35V v4 52.0874 / 5.08142 3371 ttn.v3 2.346km -119 -10.75 868.5MHz, SF9BW125, 4/5CR
2026-05-07 19:17:59 14.6875°C 74% 3.35V v4 52.0874 / 5.08142 3370 ttn.v3 2.346km -119 -3.25 867.3MHz, SF9BW125, 4/5CR
2026-05-07 18:45:59 14.875°C 72.3125% 3.35V v4 52.0874 / 5.08142 3368 ttn.v3 2.346km -118 -2.75 867.1MHz, SF9BW125, 4/5CR
1.528km -124 -9 867.1MHz, SF9BW125, 4/5CR
2026-05-07 18:30:00 15.0625°C 71.4375% 3.35V v4 52.0874 / 5.08142 3367 ttn.v3 1.528km -123 -8.2 868.1MHz, SF9BW125, 4/5CR
2.346km -124 -10.25 868.1MHz, SF9BW125, 4/5CR
2026-05-07 18:14:00 15.125°C 70.5625% 3.35V v4 52.0874 / 5.08142 3366 ttn.v3 1.528km -124 -5.8 867.9MHz, SF9BW125, 4/5CR
2026-05-07 17:58:00 15.6875°C 68% 3.35V v4 52.0874 / 5.08142 3365 ttn.v3 2.346km -116 -7.5 868.5MHz, SF9BW125, 4/5CR
2026-05-07 17:26:08 16°C 67% 3.35V v4 52.0874 / 5.08142 3363 ttn.v3 1.528km -124 -8.5 868.1MHz, SF9BW125, 4/5CR
2026-05-07 17:10:00 16.0625°C 67.5625% 3.35V v4 52.0874 / 5.08142 3362 ttn.v3 2.346km -119 -12.25 868.5MHz, SF9BW125, 4/5CR
2026-05-07 16:54:00 16.125°C 67.0625% 3.35V v4 52.0874 / 5.08142 3361 ttn.v3 2.346km -123 -8.5 867.3MHz, SF9BW125, 4/5CR
1.528km -124 -11.8 867.3MHz, SF9BW125, 4/5CR
2026-05-07 16:22:00 15.75°C 66.375% 3.35V v4 52.0874 / 5.08142 3359 ttn.v3 2.346km -119 -2.75 867.1MHz, SF9BW125, 4/5CR
2026-05-07 16:06:00 16.25°C 65.5% 3.35V v4 52.0874 / 5.08142 3358 ttn.v3 1.528km -124 -10.5 868.1MHz, SF9BW125, 4/5CR
- -125 -14 868.1MHz, SF9BW125, 4/5CR
2026-05-07 15:50:00 16.4375°C 66.125% 3.35V v4 52.0874 / 5.08142 3357 ttn.v3 2.346km -123 -7 867.9MHz, SF9BW125, 4/5CR
1.528km -125 -14 867.9MHz, SF9BW125, 4/5CR
2026-05-07 15:18:00 15.875°C 69.5625% 3.35V v4 52.0874 / 5.08142 3355 ttn.v3 1.528km -124 -6.5 867.7MHz, SF9BW125, 4/5CR
2026-05-07 14:30:01 15.5625°C 70.5% 3.35V v4 52.0874 / 5.08142 3352 ttn.v3 2.346km -126 -10.25 868.1MHz, SF9BW125, 4/5CR
1.528km -124 -10.5 868.1MHz, SF9BW125, 4/5CR
2026-05-07 14:14:01 15.375°C 71.4375% 3.35V v4 52.0874 / 5.08142 3351 ttn.v3 2.346km -120 -10 868.5MHz, SF9BW125, 4/5CR
2026-05-07 13:42:02 16.5°C 69.1875% 3.35V v4 52.0874 / 5.08142 3349 ttn.v3 2.346km -123 -7.5 868.1MHz, SF9BW125, 4/5CR
1.528km -123 -13.8 868.1MHz, SF9BW125, 4/5CR
2026-05-07 13:10:02 16.125°C 8.375% 3.35V v4 52.0874 / 5.08142 3347 ttn.v3 2.346km -116 -7.25 868.5MHz, SF9BW125, 4/5CR
2026-05-07 12:38:41 16.4375°C 16.375% 3.35V v4 52.0874 / 5.08142 3345 ttn.v3 2.346km -124 -10 867.7MHz, SF12BW125, 4/5CR
4.964km -102 -12.25 867.7MHz, SF12BW125, 4/5CR
1.528km -124 -22.8 867.7MHz, SF12BW125, 4/5CR
2026-05-07 12:22:05 15.9375°C 16.375% 3.35V v4 52.0873 / 5.08133 3344 ttn.v3 1.523km -124 -8.5 868.1MHz, SF9BW125, 4/5CR
2.334km -129 -13.75 868.1MHz, SF9BW125, 4/5CR
2026-05-07 11:34:05 15.5625°C 3.6875% 3.35V v4 52.0873 / 5.08133 3341 ttn.v3 1.523km -124 -12.5 867.3MHz, SF9BW125, 4/5CR
2026-05-07 11:02:06 15°C 0.625% 3.35V v4 52.0873 / 5.08133 3339 ttn.v3 2.334km -118 -1.75 867.1MHz, SF9BW125, 4/5CR
1.523km -124 -9 867.1MHz, SF9BW125, 4/5CR
2026-05-07 10:46:07 14.625°C -3.875% 3.35V v4 52.0873 / 5.08133 3338 ttn.v3 1.523km -124 -8.5 868.1MHz, SF9BW125, 4/5CR
2026-05-07 10:30:15 14.5°C -3.375% 3.35V v4 52.0873 / 5.08133 3337 ttn.v3 1.523km -124 -4.8 867.9MHz, SF9BW125, 4/5CR
2.334km -125 -9.5 867.9MHz, SF9BW125, 4/5CR
2026-05-07 10:14:08 14.1875°C -3.4375% 3.35V v4 52.0873 / 5.08133 3336 ttn.v3 2.334km -127 -12.5 867.7MHz, SF9BW125, 4/5CR
1.523km -123 -14 867.7MHz, SF9BW125, 4/5CR
2026-05-07 09:26:11 12.8125°C 102.812% 3.36V v4 52.0873 / 5.08133 3333 ttn.v3 2.334km -120 -10.5 868.5MHz, SF9BW125, 4/5CR
2026-05-07 09:10:12 12.375°C 101% 3.35V v4 52.0873 / 5.08133 3332 ttn.v3 2.334km -123 -9.25 867.3MHz, SF9BW125, 4/5CR
2026-05-07 08:22:15 10.875°C 91.4375% 3.36V v4 52.0873 / 5.08133 3329 ttn.v3 1.523km -124 -8.2 868.1MHz, SF9BW125, 4/5CR
2026-05-07 08:06:17 10.1875°C 89.125% 3.36V v4 52.0873 / 5.08133 3328 ttn.v3 1.523km -124 -7.5 867.9MHz, SF9BW125, 4/5CR
4.972km -110 -8.5 867.9MHz, SF9BW125, 4/5CR
2026-05-07 07:34:20 8.6875°C 112.312% 3.36V v4 52.0873 / 5.08133 3326 ttn.v3 2.334km -124 -8 867.7MHz, SF9BW125, 4/5CR
1.523km -124 -8 867.7MHz, SF9BW125, 4/5CR
2026-05-07 06:14:30 7.625°C 88.8125% 3.36V v4 52.0873 / 5.08133 3321 ttn.v3 2.334km -120 -3.75 867.1MHz, SF9BW125, 4/5CR
2026-05-07 05:58:32 7.25°C 87.3125% 3.36V v4 52.0873 / 5.08133 3320 ttn.v3 1.523km -124 -11 868.1MHz, SF9BW125, 4/5CR
2.334km -126 -13.75 868.1MHz, SF9BW125, 4/5CR
2026-05-07 05:42:34 7.125°C 88.125% 3.36V v4 52.0873 / 5.08133 3319 ttn.v3 1.523km -124 -5 867.9MHz, SF9BW125, 4/5CR
2026-05-07 05:26:36 7.0625°C 89.125% 3.36V v4 52.0873 / 5.08133 3318 ttn.v3 2.334km -118 -9 868.5MHz, SF9BW125, 4/5CR
2026-05-07 05:10:38 6.875°C 91.75% 3.36V v4 52.0873 / 5.08133 3317 ttn.v3 1.523km -124 -7 867.7MHz, SF9BW125, 4/5CR
2026-05-07 04:38:43 6.9375°C 101.812% 3.36V v4 52.0873 / 5.08133 3315 ttn.v3 1.523km -123 -14.5 867.5MHz, SF9BW125, 4/5CR
2026-05-07 04:22:45 7.1875°C 109.25% 3.36V v4 52.0873 / 5.08133 3314 ttn.v3 1.523km -124 -9.8 868.1MHz, SF9BW125, 4/5CR
2026-05-07 04:06:47 7.375°C 118.5% 3.36V v4 52.0873 / 5.08133 3313 ttn.v3 2.334km -123 -7.5 867.3MHz, SF9BW125, 4/5CR
2026-05-07 03:50:49 7.625°C 9.875% 3.36V v4 52.0873 / 5.08133 3312 ttn.v3 2.334km -118 -10.5 868.5MHz, SF9BW125, 4/5CR
2026-05-07 03:34:59 7.8125°C 34.625% 3.36V v4 52.0873 / 5.08133 3311 ttn.v3 2.334km -118 -1.5 867.1MHz, SF9BW125, 4/5CR
2026-05-07 03:18:53 8°C 97.9375% 3.36V v4 52.0873 / 5.08133 3310 ttn.v3 1.523km -124 -4.2 867.9MHz, SF9BW125, 4/5CR
2.334km -126 -9.5 867.9MHz, SF9BW125, 4/5CR
- -125 -11.5 867.9MHz, SF9BW125, 4/5CR
2026-05-07 02:46:57 8.5°C 1.375% 3.36V v4 52.0873 / 5.08133 3308 ttn.v3 1.523km -124 -8.2 867.7MHz, SF9BW125, 4/5CR
2.334km -124 -8.25 867.7MHz, SF9BW125, 4/5CR
2026-05-07 01:59:02 8.9375°C 70.1875% 3.36V v4 52.0873 / 5.08133 3305 ttn.v3 1.523km -124 -9 868.1MHz, SF9BW125, 4/5CR
2.334km -126 -10.25 868.1MHz, SF9BW125, 4/5CR
2026-05-07 01:43:04 9.25°C 98.875% 3.36V v4 52.0873 / 5.08133 3304 ttn.v3 2.334km -120 -4.75 867.3MHz, SF9BW125, 4/5CR
2026-05-07 01:27:06 9.75°C 106.625% 3.36V v4 52.0873 / 5.08133 3303 ttn.v3 2.334km -117 -6.5 868.5MHz, SF9BW125, 4/5CR
2026-05-07 01:11:07 10.125°C 112.062% 3.36V v4 52.0873 / 5.08133 3302 ttn.v3 2.334km -119 -2.5 867.1MHz, SF9BW125, 4/5CR
2026-05-07 00:39:10 10.5625°C 0.6875% 3.36V v4 52.0873 / 5.08133 3300 ttn.v3 1.523km -124 -9 867.9MHz, SF9BW125, 4/5CR
2026-05-07 00:23:11 10.75°C 0.125% 3.36V v4 52.0873 / 5.08133 3299 ttn.v3 2.334km -121 -6.75 868.1MHz, SF9BW125, 4/5CR
1.523km -124 -8.8 868.1MHz, SF9BW125, 4/5CR
2026-05-07 00:07:21 10.8125°C -5.1875% 3.36V v4 52.0873 / 5.08133 3298 ttn.v3 2.334km -124 -7.75 867.7MHz, SF9BW125, 4/5CR
- -122 -7.75 867.7MHz, SF9BW125, 4/5CR
1.523km -124 -8.2 867.7MHz, SF9BW125, 4/5CR
2026-05-06 23:51:14 10.9375°C 117.5% 3.36V v4 52.0873 / 5.08133 3297 ttn.v3 1.523km -121 -14.5 867.5MHz, SF9BW125, 4/5CR
2026-05-06 23:35:15 11.0625°C 113.125% 3.36V v4 52.0873 / 5.08133 3296 ttn.v3 1.523km -124 -10 868.1MHz, SF9BW125, 4/5CR
2026-05-06 23:19:17 11.1875°C 106.125% 3.36V v4 52.0873 / 5.08133 3295 ttn.v3 2.334km -118 -2 867.3MHz, SF9BW125, 4/5CR
1.523km -124 -14.2 867.3MHz, SF9BW125, 4/5CR
2026-05-06 23:03:18 11.375°C 101.062% 3.36V v4 52.0873 / 5.08133 3294 ttn.v3 2.334km -117 -9.5 868.5MHz, SF9BW125, 4/5CR
2026-05-06 22:15:21 11.8125°C 112.938% 3.36V v4 52.0873 / 5.08133 3291 ttn.v3 1.523km -124 -6.5 867.9MHz, SF9BW125, 4/5CR
2026-05-06 21:43:23 12.1875°C 110.25% 3.35V v4 52.0873 / 5.08133 3289 ttn.v3 2.334km -123 -6.75 867.7MHz, SF9BW125, 4/5CR
1.523km -124 -13 867.7MHz, SF9BW125, 4/5CR
2026-05-06 21:11:25 12.375°C 77.6875% 3.35V v4 52.0873 / 5.08133 3287 ttn.v3 1.523km -120 -15.5 867.5MHz, SF9BW125, 4/5CR
2026-05-06 20:39:35 12.4375°C 78% 3.35V v4 52.0873 / 5.08133 3285 ttn.v3 2.334km -124 -7.5 867.3MHz, SF9BW125, 4/5CR
2026-05-06 20:23:28 12.5°C 76.6875% 3.35V v4 52.0873 / 5.08133 3284 ttn.v3 2.334km -119 -7.5 867.1MHz, SF9BW125, 4/5CR
2026-05-06 19:51:30 12.875°C 76.25% 3.36V v4 52.0873 / 5.08133 3282 ttn.v3 1.523km -124 -10.5 867.9MHz, SF9BW125, 4/5CR
2026-05-06 19:35:31 13°C 74.75% 3.35V v4 52.0873 / 5.08133 3281 ttn.v3 2.334km -124 -8 868.1MHz, SF9BW125, 4/5CR
1.523km -124 -11.2 868.1MHz, SF9BW125, 4/5CR
2026-05-06 19:19:31 13.25°C 73.0625% 3.35V v4 52.0873 / 5.08133 3280 ttn.v3 2.334km -119 -3.5 867.7MHz, SF9BW125, 4/5CR
2026-05-06 18:15:34 13.75°C 69.4375% 3.35V v4 52.0873 / 5.08133 3276 ttn.v3 1.523km -124 -12.8 867.3MHz, SF9BW125, 4/5CR
2026-05-06 17:43:35 13.625°C 69% 3.35V v4 52.0873 / 5.08133 3274 ttn.v3 2.334km -117 -1.25 867.1MHz, SF9BW125, 4/5CR
2026-05-06 17:27:36 13.875°C 71.6875% 3.35V v4 52.0873 / 5.08133 3273 ttn.v3 2.334km -119 -14 868.5MHz, SF9BW125, 4/5CR
2026-05-06 17:11:44 13.8125°C 71.875% 3.35V v4 52.0873 / 5.08133 3272 ttn.v3 1.523km -124 -7 867.9MHz, SF9BW125, 4/5CR
2026-05-06 16:55:37 13.4375°C 70.25% 3.35V v4 52.0873 / 5.08133 3271 ttn.v3 - -121 -9.25 867.7MHz, SF9BW125, 4/5CR
1.523km -124 -13 867.7MHz, SF9BW125, 4/5CR
2026-05-06 16:39:38 13.0625°C 72.25% 3.35V v4 52.0873 / 5.08133 3270 ttn.v3 2.334km -119 -10 868.5MHz, SF9BW125, 4/5CR
2026-05-06 15:51:40 13.375°C 71.25% 3.35V v4 52.0873 / 5.08133 3267 ttn.v3 2.334km -123 -10.25 867.3MHz, SF9BW125, 4/5CR
2026-05-06 15:35:41 13.1875°C 70.375% 3.35V v4 52.0873 / 5.08133 3266 ttn.v3 2.334km -128 -13.25 868.1MHz, SF9BW125, 4/5CR
2026-05-06 15:19:41 13.75°C 70.875% 3.35V v4 52.0873 / 5.08133 3265 ttn.v3 2.334km -120 -3.75 867.1MHz, SF9BW125, 4/5CR
2026-05-06 15:03:42 13.75°C 67.75% 3.35V v4 52.0873 / 5.08133 3264 ttn.v3 2.334km -119 -11.5 868.5MHz, SF9BW125, 4/5CR
2026-05-06 14:47:43 14.25°C 65.125% 3.35V v4 52.0873 / 5.08133 3263 ttn.v3 1.523km -124 -7.8 867.9MHz, SF9BW125, 4/5CR
2026-05-06 14:15:44 14.25°C 63.8125% 3.35V v4 52.0873 / 5.08133 3261 ttn.v3 - -123 -9.75 867.7MHz, SF9BW125, 4/5CR
2026-05-06 13:59:44 13.875°C 67.5% 3.35V v4 52.0873 / 5.08133 3260 ttn.v3 2.334km -123 -8.75 868.1MHz, SF9BW125, 4/5CR
4.972km -103 -10.25 868.1MHz, SF9BW125, 4/5CR
1.523km -124 -12.8 868.1MHz, SF9BW125, 4/5CR
- -123 -13.25 868.1MHz, SF9BW125, 4/5CR
2026-05-06 13:27:46 13.75°C 2.5% 3.35V v4 52.0873 / 5.08133 3258 ttn.v3 1.523km -124 -13.2 867.3MHz, SF9BW125, 4/5CR
2026-05-06 13:11:47 13.75°C 9.5% 3.35V v4 52.0873 / 5.08133 3257 ttn.v3 2.334km -127 -13.25 868.1MHz, SF9BW125, 4/5CR
2026-05-06 12:55:47 13.5625°C 104.312% 3.35V v4 52.0873 / 5.08133 3256 ttn.v3 1.523km -124 -14.8 867.1MHz, SF9BW125, 4/5CR
2026-05-06 12:39:48 12.6875°C 94.1875% 3.35V v4 52.0873 / 5.08133 3255 ttn.v3 2.334km -119 -13 868.5MHz, SF9BW125, 4/5CR
2026-05-06 12:23:49 12.875°C 96.375% 3.35V v4 52.0873 / 5.08133 3254 ttn.v3 2.334km -126 -10.5 867.9MHz, SF9BW125, 4/5CR
1.523km -125 -11 867.9MHz, SF9BW125, 4/5CR
- -124 -11 867.9MHz, SF9BW125, 4/5CR
2026-05-06 11:51:50 14.125°C 12.125% 3.35V v4 52.0873 / 5.08133 3252 ttn.v3 2.334km -121 -5.25 867.7MHz, SF9BW125, 4/5CR
1.523km -124 -14.8 867.7MHz, SF9BW125, 4/5CR
2026-05-06 11:35:51 14.8125°C 4.6875% 3.35V v4 52.0873 / 5.08133 3251 ttn.v3 1.523km -124 -7.8 868.1MHz, SF9BW125, 4/5CR
2026-05-06 11:19:51 13.625°C -3.125% 3.35V v4 52.0873 / 5.08133 3250 ttn.v3 1.523km -123 -10.8 867.5MHz, SF9BW125, 4/5CR
2026-05-06 11:04:41 13.625°C 116.875% 3.35V v4 52.0873 / 5.08133 3249 ttn.v3 2.334km -119 -12 868.5MHz, SF12BW125, 4/5CR
- -105 -20.5 868.5MHz, SF12BW125, 4/5CR
2026-05-06 10:47:55 13.9375°C -4% 3.35V v4 52.0873 / 5.08163 3248 ttn.v3 1.51km -124 -10.2 867.3MHz, SF9BW125, 4/5CR
2026-05-06 10:16:05 12.875°C 100% 3.35V v4 52.0873 / 5.08163 3246 ttn.v3 2.337km -118 -3.25 867.1MHz, SF9BW125, 4/5CR
1.51km -124 -9.8 867.1MHz, SF9BW125, 4/5CR
2026-05-06 09:59:58 12.5625°C 107.125% 3.36V v4 52.0873 / 5.08163 3245 ttn.v3 2.337km -125 -9.5 867.9MHz, SF9BW125, 4/5CR
1.51km -125 -11.2 867.9MHz, SF9BW125, 4/5CR
2026-05-06 09:28:00 12.75°C 104% 3.36V v4 52.0873 / 5.08163 3243 ttn.v3 1.51km -124 -11.2 867.7MHz, SF9BW125, 4/5CR
2026-05-06 09:12:01 12.375°C 93.9375% 3.36V v4 52.0873 / 5.08163 3242 ttn.v3 2.337km -124 -9.25 868.1MHz, SF9BW125, 4/5CR
1.51km -124 -11.8 868.1MHz, SF9BW125, 4/5CR
2026-05-06 08:40:03 11.625°C 16.9375% 3.36V v4 52.0873 / 5.08163 3240 ttn.v3 2.337km -123 -14.5 868.5MHz, SF9BW125, 4/5CR
2026-05-06 08:24:05 11.4375°C -1.8125% 3.36V v4 52.0873 / 5.08163 3239 ttn.v3 2.337km -121 -5.25 867.3MHz, SF9BW125, 4/5CR
1.51km -123 -14.5 867.3MHz, SF9BW125, 4/5CR
2026-05-06 07:52:07 11°C 97% 3.36V v4 52.0873 / 5.08163 3237 ttn.v3 1.51km -125 -13.5 867.1MHz, SF9BW125, 4/5CR
2026-05-06 07:36:09 10.8125°C 95.5625% 3.36V v4 52.0873 / 5.08163 3236 ttn.v3 1.51km -124 -7.2 868.1MHz, SF9BW125, 4/5CR
2.337km -122 -9.5 868.1MHz, SF9BW125, 4/5CR
2026-05-06 07:20:10 10.5°C 97.4375% 3.36V v4 52.0873 / 5.08163 3235 ttn.v3 1.51km -124 -8.2 867.9MHz, SF9BW125, 4/5CR
2026-05-06 07:04:11 10.375°C 98.625% 3.36V v4 52.0873 / 5.08163 3234 ttn.v3 2.337km -118 -12.75 868.5MHz, SF9BW125, 4/5CR
2026-05-06 06:48:21 10.25°C 100.75% 3.36V v4 52.0873 / 5.08163 3233 ttn.v3 1.51km -124 -9.8 867.7MHz, SF9BW125, 4/5CR
2.337km -130 -14.5 867.7MHz, SF9BW125, 4/5CR
2026-05-06 06:00:18 9.9375°C 117.375% 3.36V v4 52.0873 / 5.08163 3230 ttn.v3 2.337km -123 -7.75 867.3MHz, SF9BW125, 4/5CR
2026-05-06 05:28:21 9.8125°C -4.875% 3.36V v4 52.0873 / 5.08163 3228 ttn.v3 2.337km -117 -7.75 867.1MHz, SF9BW125, 4/5CR
1.51km -125 -12 867.1MHz, SF9BW125, 4/5CR
2026-05-06 05:12:23 9.6875°C 117.688% 3.36V v4 52.0873 / 5.08163 3227 ttn.v3 2.337km -125 -11 868.1MHz, SF9BW125, 4/5CR
2026-05-06 04:56:24 9.625°C 118.938% 3.36V v4 52.0873 / 5.08163 3226 ttn.v3 1.51km -124 -6.5 867.9MHz, SF9BW125, 4/5CR
2026-05-06 04:40:26 9.6875°C 2.5625% 3.36V v4 52.0873 / 5.08163 3225 ttn.v3 2.337km -118 -10.25 868.5MHz, SF9BW125, 4/5CR
2026-05-06 04:24:27 9.6875°C 1.875% 3.36V v4 52.0873 / 5.08163 3224 ttn.v3 2.337km -120 -5.25 867.7MHz, SF9BW125, 4/5CR
1.51km -125 -11.2 867.7MHz, SF9BW125, 4/5CR
2026-05-06 03:52:31 10.125°C 37.4375% 3.36V v4 52.0873 / 5.08163 3222 ttn.v3 1.51km -123 -15 867.5MHz, SF9BW125, 4/5CR
2026-05-06 03:36:32 10.1875°C 65.9375% 3.36V v4 52.0873 / 5.08163 3221 ttn.v3 2.337km -123 -9 868.1MHz, SF9BW125, 4/5CR
1.51km -124 -13 868.1MHz, SF9BW125, 4/5CR
2026-05-06 03:04:35 10.3125°C 31.9375% 3.36V v4 52.0873 / 5.08163 3219 ttn.v3 2.337km -118 -1.25 867.1MHz, SF9BW125, 4/5CR
2026-05-06 02:48:37 10.25°C 26.375% 3.36V v4 52.0873 / 5.08163 3218 ttn.v3 2.337km -127 -12.75 868.1MHz, SF9BW125, 4/5CR
2026-05-06 02:32:38 10.1875°C 31.625% 3.36V v4 52.0873 / 5.08163 3217 ttn.v3 1.51km -124 -10 867.9MHz, SF9BW125, 4/5CR
- -121 -11.25 867.9MHz, SF9BW125, 4/5CR
2026-05-06 02:16:40 10.125°C 28.625% 3.36V v4 52.0873 / 5.08163 3216 ttn.v3 2.337km -121 -13 868.5MHz, SF9BW125, 4/5CR
2026-05-06 02:00:41 10.0625°C 16.3125% 3.36V v4 52.0873 / 5.08163 3215 ttn.v3 1.51km -124 -12.8 867.7MHz, SF9BW125, 4/5CR
- -123 -13.25 867.7MHz, SF9BW125, 4/5CR
2026-05-06 01:12:46 9.875°C 10.6875% 3.36V v4 52.0873 / 5.08163 3212 ttn.v3 1.51km -124 -8.2 868.1MHz, SF9BW125, 4/5CR
2026-05-06 00:56:47 9.875°C 16.5% 3.36V v4 52.0873 / 5.08163 3211 ttn.v3 1.51km -124 -10.5 867.3MHz, SF9BW125, 4/5CR
2026-05-06 00:24:51 9.75°C 37.375% 3.36V v4 52.0873 / 5.08163 3209 ttn.v3 2.337km -118 -1.5 867.1MHz, SF9BW125, 4/5CR
1.51km -124 -4.8 867.1MHz, SF9BW125, 4/5CR
2026-05-06 00:08:52 9.75°C 60% 3.36V v4 52.0873 / 5.08163 3208 ttn.v3 2.337km -121 -14.75 868.3MHz, SF9BW125, 4/5CR
2026-05-05 23:53:02 9.6875°C 88.9375% 3.36V v4 52.0873 / 5.08163 3207 ttn.v3 1.51km -125 -13.8 867.9MHz, SF9BW125, 4/5CR

Message count: 200
Node count: 1

Messages per node

Number of messages in list aboveNodes
200

Statistics per gateway

GatewayNumber of messagesNumber of nodesNodes
1391 (1.51km)
1311 (2.337km)
161
61 (4.972km)
21

Filter by dataset